SL-8 DEB, 2647

Orbit data source: Space-Track

SL-8 DEB, 2647 is space debris in LEO originally from a launch on Sat, 18 Sep 1965 UTC launched from the Tyuratam Missile And Space Complex (TTMTR). Debris objects in space refer to the collection of defunct objects orbiting the Earth. Examples of debris include non-operational satellites, rocket bodies, and fragments generated from explosions, collisions, or faulty payload assembly.

Loading next visibility...
Identifier
2647, 1965-073L
Orbit
LEO
Last TLE update
22 hours ago
Origin
Manufacturer
Unknown
Mission
Spacecraft
Bus & Motor
Unknown
Mass
Unknown
Launch date (UTC)
1965-09-18 (60 years ago)
Launch vehicle
Unknown
Launch site
Tyuratam Missile And Space Complex (TTMTR)
Object type
Payload
Rocket body
Debris
Shape & HBR
Unknown
Radar Cross Section
Small (<0.1 m²)

Expand to show TLE details & history

TLE from 22 hours ago
0 SL-8 DEB
1 02647U 65073L   25128.33010095  .00000155  00000-0  16614-2 0  9990
2 02647  56.0643 188.8248 0186613 246.7959 188.3994 12.43638657 66268
Epoch: 2025-05-08T07:55Z
Definitive object data (Epoch: 2025-05-08T07:55:20.722Z)
Latitude
53.34988°
Longitude
-92.25036°
Altitude
1,643.552 km
Speed
6.99 km/s
True Right ascension
16h 51m 57s
True Declination
53° 12' 12"
Sunlit
Object was in daylight at TLE epoch
Visualization TLE readout
Latitude
40.93468°
Longitude
-14.30866°
Altitude
1,566.649 km
Speed
7.057 km/s
Apparent Right ascension
23h 37m 44s
Apparent Declination
6° 29' 18"
Sunlit
Object is in daylight
Visualization observer readout
Local Sidereal Time
13:34:53
Azimuth
37.1° NE
Elevation
-36.309°
Doppler factor
1
Orbital elements
Apogee altitude
1,637.888 km
Perigee altitude
1,344.19 km
Semi-major axis
7,869.176 km
Eccentricity
0.0186613
Inclination
56.0643°
RAAN
188.8248°
Arg. of periapsis
246.7959°
True anomaly
188.09409°
Mean anomaly
188.3994°
Eccentric anomaly
188.24605°
Mean motion
3.1092 °/min
BSTAR
0.0016614
Orbital period
115.79 mins
Loading maneuver chart data...
Loading SW <> Apogee altitude chart data...
Loading historical data...
Loading historical data...
Loading historical data...
Loading historical data...
Loading historical data...
Loading historical data...
Loading historical data...

SL-8 DEB Visibility forecast

Observer location: undefined°, undefined°

Span
Click to sort rows by Start time (UTC) header in descending order
Start Az.
Max El. time (UTC)
Max El. Az.
Max El.
End time (UTC)
End Az.
19 mins2025-05-09 06:48:13.705Z233.108° WSW2025-05-09 06:57:13.705Z307.926° NW43.969°2025-05-09 07:07:13.705Z44.278° NE
15 mins2025-05-09 08:53:13.705Z286.169° WNW2025-05-09 09:00:13.705Z343.351° N30.003°2025-05-09 09:08:13.705Z44.196° NE
15 mins2025-05-09 10:57:13.705Z316.026° NNW2025-05-09 11:04:13.705Z10.463° NNE28.135°2025-05-09 11:12:13.705Z70.697° E
17 mins2025-05-09 12:59:13.705Z319.075° NNW2025-05-09 13:07:13.705Z31.924° NE41.434°2025-05-09 13:16:13.705Z116.846° SE
15 mins2025-05-09 15:01:13.705Z300.367° NW2025-05-09 15:08:13.705Z238.748° WSW34.627°2025-05-09 15:16:13.705Z171.368° S
11 mins2025-05-10 04:00:13.705Z147.196° SSE2025-05-10 04:05:13.705Z110.269° ESE19.814°2025-05-10 04:11:13.705Z70.914° E
|